Flag Weather past 2 weeks in Arden-Arcade, California, U.S.A.

Now
59 °F

Partly sunny.


Feels Like: 59 °F
Forecast: 42 / 62 °F
Wind: 5 mph from Southwest

Location: Mather Field

Current Time: Nov 28, 2014 at 12:58:23 PM

Latest Report: Nov 28, 2014 at 11:54 AM


Visibility: 10 mi

Pressure: 29.99 "Hg

Humidity: 68%

Dew point: 48 °F

Location of Arden-ArcadeLocation

Historic Weather in Arden-Arcade — Graph

°F

Arden-Arcade temperature yesterday

Maximum temperature yesterday: 68 °F (at 1:45 PM)
Minimum temperature yesterday: 39 °F (at 11:30 PM)
Average temperature yesterday: 52 °F

Past Weeks' High & Low Weather Summary

 TemperatureHumidityPressure
High88 °F (Nov 23, 11:49 AM)100% (Nov 13, 11:55 AM)30.50 "Hg (Nov 13, 11:55 AM)
Low34 °F (Nov 21, 8:45 AM)19% (Nov 23, 11:49 AM)29.99 "Hg (Nov 28, 11:54 AM)
Average52 °F88%30.18 "Hg
* Reported Nov 13 11:55 AM — Nov 28 11:54 AM, Arden-Arcade, Weather by CustomWeather, © 2014

Note: Actual official high and low records may vary slightly from our data, if they occured in-between our weather recording intervals... More about our weather records

Advertising

Arden-Arcade weather history for previous 24 hours

 ConditionsComfort  
Time TempWeatherWind HumidityBarometerVisibility
11:54 AM
Nov 28
59 °FPartly sunny.5 mph68%29.99 "Hg10 mi
10:45 AM55 °FFog.5 mph94%30.02 "Hg3 mi
9:45 AM54 °FPartly sunny.6 mph100%30.03 "Hg5 mi
8:52 AM48 °FPartly sunny.8 mph100%30.01 "Hg10 mi
7:48 AM37 °FPassing clouds.No wind100%30.02 "Hg10 mi
6:45 AM37 °FPassing clouds.No wind100%30.01 "Hg10 mi
5:45 AM39 °FPassing clouds.No wind100%30.00 "Hg10 mi
4:55 AM39 °FPassing clouds.3 mph100%30.00 "Hg10 mi
3:55 AM39 °FPassing clouds.No wind100%30.02 "Hg10 mi
11:30 PM
Nov 27
39 °FClear.No wind100%30.07 "Hg10 mi
10:45 PM43 °FClear.No wind100%30.07 "Hg10 mi
9:45 PM45 °FClear.No wind100%30.07 "Hg10 mi
8:55 PM46 °FClear.No wind100%30.07 "Hg10 mi
7:45 PM46 °FClear.5 mphN/AN/A10 mi
6:47 PM50 °FClear.No wind94%30.06 "Hg10 mi
5:45 PM54 °FClear.No wind77%30.06 "Hg10 mi
4:45 PM63 °FPassing clouds.3 mph56%30.07 "Hg10 mi
2:45 PM68 °FScattered clouds.3 mph49%30.09 "Hg10 mi
1:45 PM68 °FPartly sunny.No wind49%30.10 "Hg10 mi
12:45 PM66 °FPartly sunny.5 mph52%30.14 "Hg10 mi
Weather by CustomWeather, © 2014

See weather overviewHow to use our weather pages